GW0890 Weather Reports


Display with metric or nautical units.
time (UTC)temp
F
wind
direction
speed
MPH
gust
MPH
rain 1hr
in
rain 24hr
in
rain mn
in
humidity
%
barometer
mb
20260505180051 74 22 10.0 19.0 0.00 0.01 0.00 48 1009.5
20260505174555 73 30 12.0 21.0 0.00 0.01 0.00 50 1009.7
20260505173048 73 37 10.0 19.0 0.00 0.01 0.00 52 1009.9
20260505171551 74 360 7.0 19.0 0.00 0.01 0.00 51 1009.8
20260505170046 74 42 9.0 20.0 0.00 0.01 0.00 51 1009.9
20260505164556 74 19 11.0 21.0 0.00 0.01 0.00 50 1009.8
20260505163051 74 339 8.0 15.0 0.00 0.01 0.00 53 1009.6
20260505161539 74 345 9.0 22.0 0.00 0.01 0.00 52 1010.0
20260505153029 73 61 9.0 21.0 0.00 0.01 0.00 54 1010.3
20260505151526 72 73 9.0 15.0 0.00 0.01 0.00 54 1010.2
20260505124538 67 59 7.0 13.0 0.00 0.01 0.00 59 1010.4
20260505123029 66 306 6.0 10.0 0.00 0.01 0.00 61 1010.4
20260505121529 65 24 5.0 9.0 0.00 0.01 0.00 61 1010.2
20260505120114 65 11 2.0 10.0 0.00 0.01 0.00 63 1010.0
20260505114555 64 23 4.0 10.0 0.00 0.01 0.00 64 1009.7
20260505113024 63 31 2.0 9.0 0.00 0.01 0.00 66 1009.7
20260505111533 62 340 1.0 5.0 0.00 0.01 0.00 66 1009.7
20260505101515 64 24 2.0 7.0 0.00 0.01 0.00 62 1009.4
20260505100017 64 33 5.0 8.0 0.00 0.01 0.00 62 1009.3
20260505094509 65 56 3.0 10.0 0.00 0.01 0.00 62 1009.0
20260505093008 65 18 4.0 12.0 0.00 0.01 0.00 62 1008.8
20260505091507 65 26 5.0 10.0 0.00 0.01 0.00 62 1008.6
20260505090005 65 26 4.0 8.0 0.00 0.01 0.00 62 1008.7
20260505084503 65 13 3.0 8.0 0.00 0.01 0.00 63 1008.5
20260505083005 66 22 5.0 10.0 0.00 0.01 0.00 62 1008.5
20260505081501 66 41 5.0 9.0 0.00 0.01 0.00 61 1008.5
20260505080033 66 22 7.0 13.0 0.00 0.01 0.00 61 1008.4
20260505074530 66 56 6.0 13.0 0.00 0.01 0.00 61 1008.4
20260505073041 67 61 8.0 14.0 0.00 0.01 0.00 60 1008.4
20260505071544 67 69 7.0 11.0 0.00 0.01 0.00 61 1008.2
20260505070026 67 13 8.0 14.0 0.00 0.01 0.00 61 1008.2
20260505064527 66 45 6.0 14.0 0.00 0.01 0.00 61 1008.4
20260505063021 66 57 6.0 10.0 0.00 0.01 0.00 61 1008.4
20260505061520 66 42 7.0 10.0 0.00 0.01 0.00 61 1008.4
20260505060018 65 48 6.0 9.0 0.00 0.01 0.00 61 1008.3
20260505054517 65 22 5.0 7.0 0.00 0.01 0.00 62 1008.5
20260505053023 65 29 3.0 7.0 0.00 0.01 0.00 61 1008.5
20260505051518 65 32 2.0 6.0 0.00 0.01 0.00 62 1008.5
20260505041532 63 25 1.0 5.0 0.00 0.01 0.00 67 1007.8
20260505040036 62 340 0.0 2.0 0.00 0.01 0.01 69 1007.6
20260505034528 62 340 0.0 5.0 0.00 0.01 0.01 70 1007.6
20260505033031 62 292 0.0 7.0 0.00 0.01 0.01 73 1007.5
20260505031528 63 336 0.0 3.0 0.00 0.01 0.01 72 1007.5
20260505030027 65 338 0.0 1.0 0.00 0.01 0.01 65 1007.6
20260505024523 65 342 0.0 5.0 0.00 0.01 0.01 66 1007.5
20260505023023 64 19 0.0 4.0 0.00 0.01 0.01 68 1007.3
20260505021525 64 59 0.0 2.0 0.00 0.01 0.01 70 1007.2
20260505020020 65 43 0.0 2.0 0.00 0.01 0.01 69 1007.2
20260505014520 64 49 0.0 2.0 0.00 0.01 0.01 70 1007.2
20260505013018 65 40 0.0 1.0 0.00 0.01 0.01 71 1007.1
20260505011517 68 36 1.0 2.0 0.00 0.01 0.01 66 1007.0
20260505010015 72 29 0.0 1.0 0.00 0.01 0.01 55 1007.0
20260505004514 72 355 2.0 7.0 0.00 0.01 0.01 54 1007.0
20260505003013 73 17 0.0 4.0 0.00 0.01 0.01 54 1006.8
20260505001513 74 42 0.0 5.0 0.00 0.01 0.01 54 1006.9
20260505000010 74 42 1.0 7.0 0.00 0.01 0.01 52 1007.1
20260504234510 75 36 4.0 9.0 0.00 0.01 0.01 51 1007.2
20260504233011 76 39 4.0 13.0 0.00 0.01 0.01 50 1007.0
20260504231508 77 24 6.0 11.0 0.00 0.01 0.01 49 1006.9
20260504230007 77 26 4.0 11.0 0.00 0.01 0.01 49 1007.0
20260504224504 76 20 5.0 12.0 0.00 0.01 0.01 50 1007.0
20260504223003 76 347 5.0 7.0 0.00 0.01 0.01 50 1007.3
20260504221501 77 22 6.0 16.0 0.00 0.01 0.01 48 1007.5
20260504220123 77 11 7.0 13.0 0.00 0.01 0.01 49 1007.4
20260504220001 77 31 6.0 13.0 0.00 0.01 0.01 49 1007.5
20260504214558 77 40 3.0 13.0 0.00 0.01 0.01 53 1007.5
20260504213100 76 32 7.0 16.0 0.00 0.01 0.01 51 1007.6
20260504211554 76 18 6.0 14.0 0.00 0.01 0.01 54 1007.6
20260504210048 75 309 4.0 9.0 0.00 0.01 0.01 56 1008.0
20260504204516 74 296 5.0 12.0 0.00 0.01 0.01 55 1008.2
20260504203013 74 23 6.0 18.0 0.00 0.01 0.01 54 1008.2
20260504201508 73 9 8.0 16.0 0.00 0.01 0.01 53 1008.4
20260504200005 72 55 10.0 22.0 0.00 0.01 0.01 54 1008.6
20260504194503 71 39 6.0 12.0 0.01 0.01 0.01 58 1008.7
20260504193002 69 22 6.0 11.0 0.01 0.01 0.01 64 1008.9
20260504191546 68 15 10.0 18.0 0.01 0.01 0.01 66 1009.0
20260504190031 66 55 5.0 9.0 0.01 0.01 0.01 70 1009.4
20260504184614 67 11 7.0 15.0 0.00 0.00 0.00 65 1009.5
20260504183107 71 52 10.0 15.0 0.00 0.00 0.00 57 1010.3
20260504181554 72 104 8.0 12.0 0.00 0.00 0.00 54 1009.7